Find Starlink 2533

NORAD ID: 48294 Int'l Des: 2021-036 Owner: SPXS Country: US Constellation: starlink operational
LEOCIRCULAR

リアルタイム位置

3D地球を読み込み中...

Starlink 2533について

説明を読み込み中...

次回通過

Passes for default location (London). Set your location on the main map for personalized predictions.

高度履歴

Loading altitude history...

軌道要素

1 48294U 21036U 26125.51730498 .00003099 00000-0 11154-3 0 9998
2 48294 53.1599 171.1419 0001104 51.6932 308.4169 15.31710463277117
Epoch: May 5, 2026 • Age: 8 hours

現在のステータス

高度 470.6 km
速度 7.63 km/s
衛星直下点 5.15°N, 5.65°E
打ち上げ日 Apr 29, 2021
運用期間 5 years
タイプ internet

技術仕様

分類 Payload
質量 260.00 kg
乾燥質量 248.00 kg
総質量 260.00 kg
長さ 0.20 m
直径 2.80 m
スパン 9.00 m
形状 Box + pan
製造者 SPXS
バスタイプ Starlink
フェーズステータス In Orbit
所有者/国 SPXS/US

Most Searched